Location: Roland
(31.1349°N, 85.4372°W)
Time: 04:15:58
(UTC+00:00)

Courier 1B - Pass Details

Date: 19 April 2021
Orbit: 962 x 1209 km, 28.3° (Epoch: 07 May)

Event Time Altitude Azimuth Distance (km) Brightness Sun altitude
Rises 21:38:00 0° 272° (W) 3,637 11.6 32.1°
Reaches altitude 10° 21:40:40 10° 269° (W) 2,686 11.4 31.5°
Maximum altitude 21:47:01 61° 190° (S) 1,082 8.4 30.2°
Drops below altitude 10° 21:53:31 10° 111° (ESE) 2,745 9.5 28.8°
Sets 21:56:16 0° 108° (ESE) 3,723 10.0 28.2°
